This is the latest recevied weather packets stored in our database for station/object KB3GVC-13. If no packets are shown the sender has not sent any weather packets the latest 10 day(s).
| Time | Temp. | Humidity | Pressure | Rain* | Wind** | Luminosity | Snow |
|---|---|---|---|---|---|---|---|
| 1777840907 | 16.67° C | 32% | 1014.4 hPa | 0 mm | - | - | - |
| 1777840603 | 16.11° C | 35% | 1014.5 hPa | 0 mm | - | - | - |
| 1777840301 | 16.11° C | 33% | 1014.4 hPa | 0 mm | - | - | - |
| 1777839998 | 16.11° C | 32% | 1014.4 hPa | 0 mm | - | - | - |
| 1777839696 | 16.11° C | 32% | 1014.6 hPa | 0 mm | - | - | - |
| 1777839394 | 16.67° C | 33% | 1014.7 hPa | 0 mm | - | - | - |
| 1777839091 | 15.56° C | 32% | 1014.8 hPa | 0 mm | - | - | - |
| 1777838787 | 15° C | 36% | 1014.8 hPa | 0 mm | - | - | - |
| 1777838484 | 15° C | 34% | 1014.9 hPa | 0 mm | - | - | - |
| 1777838181 | 16.11° C | 33% | 1014.8 hPa | 0 mm | - | - | - |
| 1777837878 | 16.11° C | 34% | 1014.8 hPa | 0 mm | - | - | - |
| 1777837575 | 15.56° C | 34% | 1014.6 hPa | 0 mm | - | - | - |
| 1777837270 | 15.56° C | 33% | 1014.8 hPa | 0 mm | - | - | - |
| 1777836967 | 15.56° C | 35% | 1014.9 hPa | 0 mm | - | - | - |
| 1777836662 | 15.56° C | 34% | 1014.9 hPa | 0 mm | - | - | - |
| 1777836358 | 16.11° C | 33% | 1015.1 hPa | 0 mm | - | - | - |
| 1777836054 | 15° C | 34% | 1015.1 hPa | 0 mm | - | - | - |
| 1777835751 | 15° C | 33% | 1015.3 hPa | 0 mm | - | - | - |
| 1777835448 | 15.56° C | 34% | 1015.2 hPa | 0 mm | - | - | - |
| 1777835145 | 15° C | 34% | 1015.1 hPa | 0 mm | - | - | - |
| 1777834842 | 15° C | 34% | 1015.1 hPa | 0 mm | - | - | - |
| 1777834538 | 15° C | 34% | 1015.3 hPa | 0 mm | - | - | - |
| 1777834238 | 15° C | 35% | 1015.2 hPa | 0 mm | - | - | - |
| 1777833934 | 14.44° C | 35% | 1015.3 hPa | 0 mm | - | - | - |
| 1777833631 | 14.44° C | 36% | 1015.2 hPa | 0 mm | - | - | - |
* Rain latest hour (hover to see other rain measurements)
** Current wind speed in m/s (hover to see current wind gust speed)